www.pogodaiklimat.ru
ПОГОДА в Задаре

Архив погоды в Задаре (Хорватия)

Время
(UTC), дата
04 29.09
05 29.09
06 29.09
07 29.09
08 29.09
09 29.09
10 29.09
11 29.09
12 29.09
13 29.09
14 29.09
15 29.09
16 29.09
17 29.09
18 29.09
19 29.09
20 29.09
21 29.09
00 30.09
03 30.09
04 30.09
05 30.09
06 30.09
07 30.09
08 30.09
09 30.09
10 30.09
11 30.09
12 30.09
13 30.09
14 30.09
15 30.09
16 30.09
17 30.09
18 30.09
19 30.09
20 30.09
21 30.09
00 1.10
03 1.10
04 1.10
05 1.10
06 1.10
07 1.10
08 1.10
09 1.10
10 1.10
11 1.10
12 1.10
13 1.10
14 1.10
15 1.10
16 1.10
17 1.10
18 1.10
19 1.10
20 1.10
21 1.10
00 2.10
03 2.10
04 2.10
05 2.10
06 2.10
07 2.10
08 2.10
09 2.10
10 2.10
11 2.10
12 2.10
13 2.10
14 2.10
15 2.10
16 2.10
17 2.10
18 2.10
19 2.10
20 2.10
21 2.10
00 3.10
03 3.10
04 3.10
05 3.10
06 3.10
07 3.10
08 3.10
09 3.10
10 3.10
11 3.10
12 3.10
13 3.10
14 3.10
15 3.10
16 3.10
17 3.10
18 3.10
19 3.10
20 3.10
21 3.10
00 4.10
03 4.10
04 4.10
05 4.10
06 4.10
07 4.10
08 4.10
09 4.10
10 4.10
11 4.10
12 4.10
13 4.10
14 4.10
15 4.10
16 4.10
17 4.10
18 4.10
19 4.10
20 4.10
21 4.10
00 5.10
03 5.10
04 5.10
05 5.10
06 5.10
07 5.10
08 5.10
09 5.10
10 5.10
11 5.10
12 5.10
13 5.10
14 5.10
15 5.10
16 5.10
17 5.10
18 5.10
19 5.10
20 5.10
21 5.10
00 6.10
Ветер
(напр.,м/с)
Видим. Явления Облачность Т
(С)
Тd
(С)
f
(%)
Тe
(С)
Тes
(С)
Комфортность P
(гПа)
Po
(гПа)
Тmin
(С)
Tmax
(С)
R
(мм)
R24
(мм)
S
(см)
ЮВ 4 н/о н/о +20.1 +17.8 87 +23 +23 комфорт 1001.0 1000.3
Ю 3 н/о н/о +20.9 +16.4 75 +25 +25 комфорт 1001.3 1000.6
ЮВ 6 20 км в посл. час дождь 9/8 600 м
[Cu Sc Ci fib]
+20.4 +18.3 88 +24 +24 комфорт 1001.8 1001.1 +19.8 0.0 0.0
ЮВ 7 20 км 9/4 600 м
[Cu Sc Ac As Cs]
+21.0 +17.5 80 +25 +25 комфорт 1001.7 1001.0
ЮВ 7 20 км слаб. дождь 9/6 300 м
[Cu Sc Ac As]
+21.0 +17.9 82 +25 +25 комфорт 1002.2 1001.5
Ю 7 20 км в посл. час дождь 8/4 600 м
[Cu Sc Cs]
+21.2 +18.3 84 +25 +26 комфорт 1002.7 1002.0
ЮВ 7 20 км 8/3 600 м
[Cu Sc Ac trans Cs]
+21.3 +18.1 82 +26 +27 душно 1002.8 1002.1
ЮВ 7 20 км 8/3 600 м
[Sc Ac trans Cs]
+22.3 +17.2 73 +27 +28 душно 1002.7 1002.0
ЮВ 8 20 км {дождь} 8/3 600 м
[Cu Sc Ac trans Cs]
+22.0 +17.4 75 +26 +27 душно 1002.7 1002.0 0.0 0.0
ЮВ 8 20 км 8/3 600 м
[Cu Sc Ac und Ci sp]
+22.1 +17.5 75 +27 +27 душно 1002.6 1001.9
ЮВ 10 н/о н/о +21.6 +17.7 78 +26 +26 душно 1002.7 1002.0
ЮВ 9 н/о н/о +21.1 +18.2 84 +25 +25 комфорт 1002.9 1002.2
ЮВ 8 н/о н/о +21.1 +18.0 82 +25 +25 комфорт 1002.6 1001.9
ЮВ 8 н/о н/о +21.0 +17.7 81 +25 +25 комфорт 1003.4 1002.7
ЮВ 9 20 км в посл. час дождь 9/6 600 м
[Cu Sc Ac As]
+21.0 +17.6 81 +25 +25 комфорт 1002.7 1002.0 +22.6 0.0
ЮВ 9 20 км зарница {гроза} 9/9 600 м
[Cb cap]
+21.0 +17.9 82 +25 +25 комфорт 1003.4 1002.7
ЮЗ 8 15 км гроза, ливневой дождь 10/10 300 м
[Cb cap]
+17.8 +15.9 89 +17 +17 1004.3 1003.6
С 3 н/о н/о +17.1 +15.5 90 +17 +17 1004.6 1003.9
В 3 н/о н/о +16.4 +15.5 94 +16 +16 1005.4 1004.7
В 3 н/о н/о +16.4 +15.0 91 +16 +16 1006.3 1005.6
В 3 н/о н/о +16.5 +15.1 91 +16 +16 1006.9 1006.2
В 3 н/о н/о +17.5 +15.9 90 +17 +17 1007.8 1007.1
В 3 20 км {дождь} 8/3 600 м
[Cu Sc Ac trans Cs]
+18.2 +15.3 83 +19 +19 1008.5 1007.8 +15.5 11 11.2
В 3 20 км 5/3 600 м
[Cu Sc Cs]
+19.0 +16.6 86 +21 +22 комфорт 1009.3 1008.6
ЮВ 4 20 км 5/3 600 м
[Cu Sc Ac und Ci sp]
+21.0 +15.6 71 +25 +26 комфорт 1009.6 1008.9
ЮВ 5 20 км 8/3 600 м
[Cu med, cong Ac und Cs]
+21.2 +17.0 77 +25 +27 комфорт 1010.7 1010.0
ЮВ 6 20 км 8/3 600 м
[Cu med, cong Ac trans Cs]
+22.0 +16.9 73 +26 +28 душно 1010.9 1010.2
ЮВ 7 20 км 8/3 600 м
[Cu med, cong Ac As Cs]
+22.5 +17.8 75 +28 +29 душно 1010.7 1010.0
ЮВ 8 20 км 9/1 1000 м
[Cu med, cong Ac As Cs]
+22.5 +17.5 73 +27 +28 душно 1010.6 1009.9 11.2
ЮВ 10 20 км 9/4 600 м
[Cu Sc Ac As]
+22.2 +17.3 74 +27 +27 душно 1010.6 1009.9
ЮВ 9 н/о н/о +21.7 +16.7 73 +26 +26 душно 1011.4 1010.7
ЮВ 5 н/о н/о +21.5 +16.5 73 +25 +25 комфорт 1011.7 1011.0
ЮВ 7 н/о н/о +21.4 +16.0 71 +25 +25 комфорт 1011.7 1011.0
н/о 1012.1 1011.4
ЮВ 8 20 км 9/3 600 м
[Cu Sc Ac As Cs]
+21.6 +17.1 76 +26 +26 душно 1012.3 1011.6 +22.6
ЮВ 6 20 км 5/1 1500 м
[Sc Ac trans Cs]
+21.4 +17.7 79 +26 +26 душно 1012.4 1011.7
В 4 20 км 5/1 1500 м
[Sc Ac trans Ci sp]
+20.6 +14.8 69 +23 +23 комфорт 1012.6 1011.9
В 3 н/о н/о +20.2 +15.5 74 +23 +23 комфорт 1012.9 1012.2
ЮВ 10 н/о н/о +21.8 +18.9 84 +27 +27 душно 1013.2 1012.5
ЮВ 7 н/о н/о +21.1 +19.6 91 +26 +26 душно 1013.7 1013.0
ЮВ 7 н/о н/о +20.8 +19.7 93 +25 +25 комфорт 1013.7 1013.0
Ю 5 н/о н/о +20.6 +19.5 93 +25 +25 комфорт 1014.3 1013.6
ЮВ 4 20 км 6/3 300 м
[Cb calv Ac trans Ci sp]
+20.8 +19.3 91 +25 +26 комфорт 1014.5 1013.8 +20.5
Ю 2 20 км 8/4 300 м
[Cu Sc Ac As Ci sp]
+20.8 +17.7 82 +25 +26 комфорт 1014.9 1014.2
СЗ 2 20 км 8/5 600 м
[Cu Sc Ac As]
+21.5 +17.8 79 +26 +27 душно 1015.2 1014.5
СЗ 4 20 км 8/3 600 м
[Cu Sc Ac trans Cs]
+21.8 +18.1 80 +27 +29 душно 1015.5 1014.8
СЗ 4 20 км 9/5 600 м
[Cu Sc Ac As]
+21.1 +17.2 78 +25 +26 комфорт 1015.8 1015.1
СЗ 5 20 км в посл. час дождь 9/5 600 м
[Cu Sc Ac As]
+20.3 +17.2 82 +23 +24 комфорт 1016.0 1015.3
СЗ 4 20 км {дождь} 8/5 600 м
[Cu Sc Ac As]
+19.7 +16.1 80 +22 +24 комфорт 1016.0 1015.3 0.0 0.0
СЗ 2 20 км в посл. час дождь 3/3 600 м
[Cu Sc]
+21.2 +16.4 74 +25 +29 комфорт 1015.2 1014.5
З 3 н/о н/о +21.2 +14.9 67 +24 +24 комфорт 1015.4 1014.7
З 3 н/о н/о +21.0 +15.6 71 +25 +25 комфорт 1014.8 1014.1
СЗ 3 н/о н/о +19.9 +15.6 76 +22 +22 комфорт 1015.0 1014.3
СЗ 3 н/о н/о +19.1 +15.6 80 +21 +21 комфорт 1015.2 1014.5
С 2 20 км {дождь} 1/0
[Ci fib]
+18.5 +15.4 82 +20 +20 1015.3 1014.6 +22.2 0.1
С 2 20 км 1/0
[Ci fib]
+17.8 +15.2 85 +18 +18 1015.8 1015.1
СЗ 2 20 км 3/0
[Ac und]
+18.6 +15.4 82 +20 +20 1016.6 1015.9
З 2 н/о н/о +19.0 +14.1 73 +21 +21 комфорт 1017.7 1017.0
СВ 2 н/о н/о +16.9 +14.4 85 +17 +17 1018.8 1018.1
штиль 0 н/о н/о +15.8 +14.1 90 +16 +16 1019.7 1019.0
В 2 н/о н/о +15.6 +13.9 90 +15 +15 1019.7 1019.0
В 2 н/о н/о +15.8 +14.4 91 +16 +16 1020.1 1019.4
В 2 20 км 8/1 600 м
[Cu hum Ac lent Cs]
+16.9 +15.1 89 +17 +17 1020.2 1019.5 +15.4 0.1
В 1 20 км 8/0
[Cs]
+18.6 +15.0 80 +21 +22 комфорт 1020.8 1020.1
ЮВ 2 20 км 8/1 600 м
[Cu hum Ac und Cs]
+20.2 +16.4 79 +24 +26 комфорт 1021.1 1020.4
ЮВ 2 20 км 8/3 600 м
[Cu med, cong Ac lent Cs]
+20.4 +16.6 79 +24 +27 комфорт 1021.0 1020.3
Ю 1 20 км 6/3 600 м
[Cu med, cong Ac lent Cs]
+22.4 +15.1 63 +26 +32 жарко 1020.9 1020.2
З 1 20 км 6/3 600 м
[Cu med, cong Cs]
+22.6 +15.3 63 +26 +33 жарко 1020.8 1020.1
З 2 20 км 4/3 600 м
[Cu med, cong Ci sp]
+22.4 +15.5 65 +26 +32 жарко 1020.3 1019.6 0.1
С 1 20 км 3/3 600 м
[Cu med, cong Ci fib]
+23.0 +15.3 62 +27 +33 душно 1019.7 1019.0
З 2 н/о н/о +22.4 +15.1 63 +26 +26 жарко 1019.7 1019.0
СЗ 2 н/о н/о +22.6 +15.5 64 +27 +27 душно 1019.0 1018.3
СЗ 1 н/о н/о +21.3 +15.2 68 +24 +24 комфорт 1018.5 1017.8
штиль 0 н/о н/о +20.4 +15.9 75 +23 +23 комфорт 1018.0 1017.3
Ю 1 20 км ясно +19.9 +15.6 76 +23 +23 комфорт 1017.8 1017.1 +23.7
Ю 2 20 км ясно +20.0 +15.5 75 +23 +23 комфорт 1017.3 1016.6
В 1 20 км 3/0
[Ac und]
+19.0 +15.5 80 +21 +21 комфорт 1017.5 1016.8
В 2 н/о н/о +18.8 +15.5 81 +20 +20 1017.6 1016.9
В 1 н/о н/о +18.0 +15.0 83 +19 +19 1017.1 1016.4
ЮВ 1 н/о н/о +18.0 +15.1 83 +19 +19 1016.8 1016.1
СВ 1 н/о н/о +17.3 +15.0 86 +18 +18 1017.1 1016.4
В 2 н/о н/о +16.9 +14.4 85 +17 +17 1016.8 1016.1
В 1 20 км 3/3 600 м
[Cu med, cong Ac trans]
+17.2 +14.2 83 +18 +18 1017.0 1016.3 +16.4
В 1 20 км 3/3 600 м
[Sc]
+19.8 +15.3 75 +23 +25 комфорт 1017.7 1017.0
Ю 2 20 км 3/1 600 м
[Cu hum Ac und]
+20.3 +15.5 74 +24 +27 комфорт 1018.0 1017.3
З 2 20 км 1/1 600 м
[Cu med, cong]
+21.7 +15.7 69 +25 +31 комфорт 1018.0 1017.3
З 2 20 км 1/1 600 м
[Cu med, cong]
+22.5 +15.9 66 +27 +34 душно 1018.2 1017.5
З 2 20 км 1/1 600 м
[Cu hum]
+23.2 +14.8 59 +27 +35 душно 1017.8 1017.1
С 4 20 км 3/1 600 м
[Cu hum Ci]
+25.3 +8.2 34 +26 +31 жарко 1017.7 1017.0
З 4 20 км 3/1 600 м
[Cu hum Ci fib]
+23.0 +13.4 55 +26 +30 жарко 1017.8 1017.1
З 3 н/о н/о +22.8 +12.8 53 +26 +26 жарко 1018.2 1017.5
С 4 н/о н/о +23.9 +9.5 40 +25 +25 комфорт 1018.1 1017.4
С 4 н/о н/о +22.3 +9.5 44 +24 +24 комфорт 1018.4 1017.7
С 2 н/о н/о +20.3 +9.3 49 +22 +22 комфорт 1019.0 1018.3
СВ 3 20 км ясно +19.7 +7.5 45 +21 +21 комфорт 1019.1 1018.4 +25.5
В 2 20 км ясно +19.2 +8.0 48 +20 +20 1019.5 1018.8
ЮВ 3 20 км ясно +18.5 +8.0 50 +19 +19 1020.1 1019.4
В 2 н/о н/о +17.4 +6.9 50 +18 +18 1020.7 1020.0
В 3 н/о н/о +17.0 +6.6 50 +17 +17 1021.1 1020.4
В 5 н/о н/о +16.1 +6.0 51 +15 +15 1021.0 1020.3
В 4 н/о н/о +15.7 +5.1 49 +15 +15 1021.2 1020.5
В 3 н/о н/о +15.1 +5.4 52 +15 +15 1021.5 1020.8
В 3 20 км 1/0
[Ac lent]
+15.2 +5.7 53 +15 +15 1021.6 1020.9 +14.5
В 4 20 км 3/0
[Ac lent Ci]
+17.7 +5.9 46 +17 +18 1022.2 1021.5
В 3 20 км 3/0
[Ac lent Ci fib]
+19.5 +6.5 43 +20 +23 1022.5 1021.8
Ю 2 20 км 3/0
[Ac lent Ci fib]
+20.0 +7.0 43 +21 +27 комфорт 1022.6 1021.9
Ю 2 20 км 4/1 1000 м
[Cu hum Ac und Ci fib]
+21.0 +6.9 40 +23 +29 комфорт 1023.0 1022.3
З 2 20 км 3/1 1000 м
[Cu hum Ac lent Ci sp]
+21.0 +8.6 45 +23 +30 комфорт 1022.7 1022.0
З 2 20 км 3/1 1000 м
[Cu hum Ac lent Ci sp]
+21.3 +9.6 47 +23 +29 комфорт 1022.5 1021.8
З 2 20 км 3/1 600 м
[Cu hum Ci sp]
+21.6 +10.0 48 +23 +29 комфорт 1022.1 1021.4
СЗ 3 н/о н/о +21.8 +11.0 50 +24 +24 комфорт 1022.5 1021.8
З 3 н/о н/о +20.4 +10.8 54 +22 +22 комфорт 1022.4 1021.7
З 2 н/о н/о +19.6 +11.7 60 +22 +22 комфорт 1022.6 1021.9
З 3 н/о н/о +19.0 +11.4 61 +20 +20 1022.9 1022.2
СЗ 2 20 км ясно +18.0 +13.3 74 +19 +19 1023.1 1022.4 +22.2
СЗ 1 20 км ясно +17.8 +12.8 73 +19 +19 1023.5 1022.8
С 1 20 км ясно +17.4 +12.7 74 +18 +18 1024.2 1023.5
С 1 н/о н/о +17.3 +12.9 75 +18 +18 1025.0 1024.3
В 2 н/о н/о +16.2 +13.2 82 +16 +16 1025.8 1025.1
В 3 н/о н/о +15.0 +9.0 67 +14 +14 1026.0 1025.3
В 2 н/о н/о +15.0 +8.8 66 +15 +15 1026.0 1025.3
В 2 н/о н/о +14.6 +8.4 66 +14 +14 1026.3 1025.6
В 3 20 км 5/1 600 м
[Cu hum Cs]
+15.1 +10.1 72 +14 +15 1026.2 1025.5 +14.3
ЮВ 2 20 км 6/0
[Ac und Cs]
+17.4 +9.1 58 +18 +19 1026.7 1026.0
В 2 20 км 3/0
[Ac trans Ci sp]
+19.1 +10.2 56 +20 +24 1026.9 1026.2
ЮВ 2 20 км 3/1 600 м
[Cu hum Ci sp]
+20.0 +11.5 58 +22 +28 комфорт 1027.3 1026.6
Ю 1 20 км 3/1 600 м
[Cu hum Ci sp]
+20.8 +10.9 53 +24 +32 комфорт 1027.3 1026.6
С 2 20 км 3/0
[Ci sp]
+21.8 +12.7 56 +24 +33 комфорт 1027.3 1026.6
СЗ 2 20 км 3/0
[Cs]
+21.8 +13.1 58 +24 +32 комфорт 1026.9 1026.2
СЗ 2 20 км 3/0
[Cs]
+22.4 +14.2 60 +26 +32 жарко 1026.6 1025.9
З 3 н/о н/о +21.6 +14.1 62 +24 +24 комфорт 1026.8 1026.1
СЗ 2 н/о н/о +21.8 +15.5 67 +25 +25 комфорт 1026.5 1025.8
СЗ 3 н/о н/о +20.7 +15.1 70 +24 +24 комфорт 1026.2 1025.5
СЗ 3 н/о н/о +19.8 +14.9 73 +22 +22 комфорт 1026.2 1025.5
СЗ 3 20 км 1/0
[Ci fib]
+19.9 +15.8 77 +23 +23 комфорт 1026.0 1025.3 +22.7
СЗ 1 20 км 1/0
[Ci fib]
+19.2 +16.3 83 +22 +22 комфорт 1026.3 1025.6
З 3 20 км 1/0
[Ci fib]
+19.6 +16.8 84 +22 +22 комфорт 1026.5 1025.8
СЗ 3 н/о н/о +19.4 +16.1 81 +21 +21 комфорт 1027.0 1026.3
В 1 н/о н/о +17.5 +16.1 91 +19 +19 1027.2 1026.5
Местоположение метеостанции Задар (Хорватия): широта 44.13 долгота 15.22 высота над уровнем моря 7 м.
В архиве по умолчанию представлена погода в Задаре за последнюю неделю. Архивные данные за месяц целиком и за предыдущие месяцы, начиная с января 2011 года, Вы можете получить, выбрав интересующий диапазон дат из раскрывающегося списка и нажав кнопку "Найти!".
*Определитесь, кто Вы:
Внимание! Время в таблицах - всемирное. Для получения местного времени необходимо прибавить поправку, которая равна 1 ч.
Смотрите также архив погоды в соседних городах и на ближайших метеорологических станциях:
Партнеры нашего сайта:      
Пояснения к столбцам:
  • Ветер - указаны скорость ветра в м/с - средняя за 10 мин, порывы в срок и между сроками (в фигурных скобках) и направление, откуда дует ветер: С - северный,
  • СВ - северо-восточный, В - восточный, ЮВ - юго-восточный, Ю - южный, ЮЗ - юго-западный, З - западный, СЗ - северо-западный.
  • Видимость - горизонтальная дальность видимости в метрах или километрах. При видимости от 1 до 10 км при отсутствии осадков обычно наблюдается дымка, при ухудшении видимости до 1 км и менее - туман. В сухую погоду видимость может ухудшаться дымом, пылью или мглою.
  • Явления - указаны атмосферные явления, наблюдавшиеся в срок или в последний час перед сроком; фигурными скобками обозначены явления, наблюдавшиеся между сроками (за 1-3 часа до срока); квадратными скобками обозначены град или гололедные отложения с указанием их диаметра в мм.
  • Облачность - указаны через наклонную черту общая и нижняя облачность в баллах и высота нижней границы облаков в метрах; квадратными скобками обозначены формы облаков: Ci - перистые, Cs - перисто-слоистые, Cc - перисто-кучевые, Ac - высококучевые, As - высокослоистые, Sc - слоисто-кучевые, Ns - слоисто-дождевые, Cu - кучевые, Cb - кучево-дождевые. Подробнее классификацию облаков см. в Атласе облаков (PDF).
  • T - Температура воздуха - температура, измеренная на высоте 2 м над землей.
  • Td - Температура точки росы - температура, при понижении до которой содержащийся в воздухе водяной пар достигнет насыщения.
  • f - Относительная влажность воздуха - влажноcть воздуха, измеренная на высоте 2 м над землей.
  • Te - Эффективная температура - температура, которую ощущает одетый по сезону человек в тени. Характеристика душности погоды. При расчете учитывается влияние влажности воздуха и скорости ветра на теплоощущения человека.
  • Tes - Эффективная температура на солнце - температура, которую ощущает человек, с поправкой на солнечный нагрев. Характеристика знойности погоды. Зависит от высоты солнца над горизонтом, облачности и скорости ветра. Ночью, в пасмурную погоду, а также при ветре 12 м/с и более поправка равна нулю.
  • P - Атмосферное давление - приведенное к уровню моря атмосферное давление.
  • Po - Атмосферное давление - измеренное на уровне метеостанции атмосферное давление.
  • Tmin - Минимальная температура - минимум температуры воздуха на высоте 2 м над землей.
  • Tmax - Максимальная температура - максимум температуры воздуха на высоте 2 м над землей.
  • R - Количество осадков - Количество выпавших осадков за период времени, мм. При наведении курсора мыши на число - период времени, за который выпало указанное количество осадков.
  • R24 - Количество осадков - Количество выпавших осадков за 24 часа, мм.
  • S - Снежный покров - Высота снежного покрова, см. При наведении курсора мыши на число - состояние снежного покрова и степень покрытия местности в баллах.